User: anonymous   Login
Location: Unspecified
(0.0000°N, 0.0000°E)
Time: 01:54:50
(UTC+00:00)
Language:

STARLINK-30336 - Orbit

View from above orbital plane
View from above orbital plane
View from above satellite
View from above satellite

Ground track
Ground track

The orbit is defined by the following mean orbital elements,

1 57703U          26145.06752995 +.00000000 +00000-0 +19999-3 0 00006
2 57703  43.0032  46.5632 0001293 261.0871  98.9834 15.27559506    08
Epoch (UTC): 25 May 2026 01:37:14
Eccentricity: 0.0001293
inclination: 43.0032°
perigee height: 482 km
apogee height: 484 km
right ascension of ascending node: 46.5632°
argument of perigee: 261.0871°
revolutions per day: 15.27559506
mean anomaly at epoch: 98.9834°

The dashed part of the orbit path shows where the satellite is in the earth's shadow,  

DLR